Time,TemperatureF,DewpointF,PressureIn,WindDirection,WindDirectionDegrees,WindSpeedMPH,WindSpeedGustMPH,Humidity,HourlyPrecipIn,Conditions,Clouds,dailyrainin,SolarRadiationWatts/m^2,SoftwareType,DateUTC
2013-08-10 00:00:00,83.0,48.0,30.10,ESE,119,12.0,22.0,30,-99.99,,,-99.99,0.000000,,2013-08-10 06:00:00,
2013-08-10 00:53:00,83.0,48.0,30.10,ESE,119,12.0,22.0,30,-99.99,,,-99.99,0.000000,,2013-08-10 06:53:00,
2013-08-10 02:00:00,82.0,49.0,30.10,South,171,10.0,19.0,32,-99.99,,,-99.99,0.000000,,2013-08-10 08:00:00,
2013-08-10 02:53:00,82.0,49.0,30.10,South,171,10.0,19.0,32,-99.99,,,-99.99,0.000000,,2013-08-10 08:53:00,
2013-08-10 03:00:00,78.0,50.0,30.12,SE,139,12.0,29.0,37,-99.99,,,-99.99,0.000000,,2013-08-10 09:00:00,
2013-08-10 03:52:00,78.0,50.0,30.12,SE,139,12.0,29.0,37,-99.99,,,-99.99,0.000000,,2013-08-10 09:52:00,
2013-08-10 04:00:00,77.0,51.0,30.14,SE,137,11.0,27.0,40,-99.99,,,-99.99,0.000000,,2013-08-10 10:00:00,
2013-08-10 04:53:00,77.0,51.0,30.14,SE,137,11.0,27.0,40,-99.99,,,-99.99,0.000000,,2013-08-10 10:53:00,
2013-08-10 05:00:00,76.0,52.0,30.15,ESE,111,14.0,20.0,43,-99.99,,,-99.99,0.000000,,2013-08-10 11:00:00,
2013-08-10 05:53:00,76.0,52.0,30.15,ESE,111,14.0,20.0,43,-99.99,,,-99.99,0.000000,,2013-08-10 11:53:00,
2013-08-10 06:00:00,76.0,52.0,30.16,ESE,107,13.0,22.0,44,-99.99,,,-99.99,0.000000,,2013-08-10 12:00:00,
2013-08-10 06:52:00,76.0,52.0,30.16,ESE,107,13.0,22.0,44,-99.99,,,-99.99,0.000000,,2013-08-10 12:52:00,
2013-08-10 07:00:00,75.0,53.0,30.19,East,98,16.0,21.0,47,-99.99,,,-99.99,3.770000,,2013-08-10 13:00:00,
2013-08-10 07:52:00,75.0,53.0,30.19,East,98,16.0,21.0,47,-99.99,,,-99.99,3.770000,,2013-08-10 13:52:00,
2013-08-10 08:00:00,74.0,56.0,30.20,East,97,17.0,25.0,52,-99.99,,,-99.99,146.000000,,2013-08-10 14:00:00,
2013-08-10 08:53:00,74.0,56.0,30.20,East,97,17.0,25.0,52,-99.99,,,-99.99,146.000000,,2013-08-10 14:53:00,
2013-08-10 10:00:00,75.0,57.0,30.23,ENE,71,20.0,27.0,52,-99.99,,,-99.99,506.899994,,2013-08-10 16:00:00,
2013-08-10 10:53:00,75.0,57.0,30.23,ENE,71,20.0,27.0,52,-99.99,,,-99.99,506.899994,,2013-08-10 16:53:00,
2013-08-10 11:00:00,78.0,55.0,30.23,ENE,68,18.0,27.0,44,-99.99,,,-99.99,646.900024,,2013-08-10 17:00:00,
2013-08-10 11:52:00,78.0,55.0,30.23,ENE,68,18.0,27.0,44,-99.99,,,-99.99,646.900024,,2013-08-10 17:52:00,
2013-08-10 12:00:00,79.0,53.0,30.23,East,82,16.0,25.0,41,-99.99,,,-99.99,726.000000,,2013-08-10 18:00:00,
2013-08-10 12:52:00,79.0,53.0,30.23,East,82,16.0,25.0,41,-99.99,,,-99.99,726.000000,,2013-08-10 18:52:00,
2013-08-10 13:00:00,80.0,54.0,30.22,East,101,11.0,25.0,41,-99.99,,,-99.99,294.299988,,2013-08-10 19:00:00,
2013-08-10 13:53:00,80.0,54.0,30.22,East,101,11.0,25.0,41,-99.99,,,-99.99,294.299988,,2013-08-10 19:53:00,
2013-08-10 14:00:00,76.0,59.0,30.21,SE,143,9.0,18.0,56,-99.99,,,-99.99,227.399994,,2013-08-10 20:00:00,
2013-08-10 14:53:00,76.0,59.0,30.21,SE,143,9.0,18.0,56,-99.99,,,-99.99,227.399994,,2013-08-10 20:53:00,
2013-08-10 15:00:00,78.0,56.0,30.19,ENE,62,2.0,17.0,46,-99.99,,,-99.99,210.000000,,2013-08-10 21:00:00,
2013-08-10 15:52:00,78.0,56.0,30.19,ENE,62,2.0,17.0,46,-99.99,,,-99.99,210.000000,,2013-08-10 21:52:00,
2013-08-10 16:00:00,83.0,54.0,30.15,East,80,4.0,5.0,37,-99.99,,,-99.99,395.299988,,2013-08-10 22:00:00,
2013-08-10 16:52:00,83.0,54.0,30.15,East,80,4.0,5.0,37,-99.99,,,-99.99,395.299988,,2013-08-10 22:52:00,
2013-08-10 17:00:00,82.0,50.0,30.14,ESE,118,10.0,12.0,33,-99.99,,,-99.99,429.200012,,2013-08-10 23:00:00,
2013-08-10 17:53:00,82.0,50.0,30.14,ESE,118,10.0,12.0,33,-99.99,,,-99.99,429.200012,,2013-08-10 23:53:00,
2013-08-10 18:00:00,80.0,50.0,30.13,ESE,116,12.0,-999.0,35,-99.99,,,-99.99,145.199997,,2013-08-11 00:00:00,
2013-08-10 18:52:00,80.0,50.0,30.13,ESE,116,12.0,-999.0,35,-99.99,,,-99.99,145.199997,,2013-08-11 00:52:00,
2013-08-10 19:00:00,81.0,49.0,30.12,ESE,111,8.0,-999.0,33,-99.99,,,-99.99,158.899994,,2013-08-11 01:00:00,
2013-08-10 19:54:00,81.0,49.0,30.12,ESE,111,8.0,-999.0,33,-99.99,,,-99.99,158.899994,,2013-08-11 01:54:00,
2013-08-10 20:00:00,79.0,52.0,30.14,ESE,104,4.0,16.0,40,-99.99,,,-99.99,24.980000,,2013-08-11 02:00:00,
2013-08-10 20:57:00,79.0,52.0,30.14,ESE,104,4.0,16.0,40,-99.99,,,-99.99,24.980000,,2013-08-11 02:57:00,
2013-08-10 21:00:00,78.0,52.0,30.14,East,86,3.0,7.0,40,-99.99,,,-99.99,0.040000,,2013-08-11 03:00:00,
2013-08-10 21:56:00,78.0,52.0,30.14,East,86,3.0,7.0,40,-99.99,,,-99.99,0.040000,,2013-08-11 03:56:00,
2013-08-10 22:00:00,78.0,52.0,30.16,East,86,3.0,9.0,41,-99.99,,,-99.99,0.000000,,2013-08-11 04:00:00,
2013-08-10 22:53:00,78.0,52.0,30.16,East,86,3.0,9.0,41,-99.99,,,-99.99,0.000000,,2013-08-11 04:53:00,
2013-08-10 23:00:00,75.0,58.0,30.17,SSW,194,2.0,8.0,55,-99.99,,,-99.99,0.000000,,2013-08-11 05:00:00,
2013-08-10 23:56:00,75.0,58.0,30.17,SSW,194,2.0,8.0,55,-99.99,,,-99.99,0.000000,,2013-08-11 05:56:00,